Weather History for KBLH - January, 2014

Change the Weather History Date:

Friday, January 17, 2014

  Actual Average Record
Temperature  
Mean Temperature 62 °F -  
Max Temperature 78 °F 67 °F 82 °F (1976)
Min Temperature 46 °F 42 °F 25 °F (2007)
Degree Days  
Heating Degree Days 3    
Growing Degree Days 12 (Base 50)    
Moisture  
Dew Point 13 °F    
Average Humidity 16    
Maximum Humidity 25    
Minimum Humidity 7    
Precipitation  
Precipitation 0.00 in - - ()
Sea Level Pressure  
Sea Level Pressure 30.11 in    
Wind  
Wind Speed 4 mph (NNW)    
Max Wind Speed 10 mph    
Max Gust Speed -    
Visibility 10 miles    
Events      
Averages and records for this station are not official NWS values.
T = Trace of Precipitation, MM = Missing Value Source: NWS Daily Summary

Daily Weather History Graph

Daily Weather History Graph

Search for Another Location

Airport or City:

Trip Planner

Search our weather history database for the weather conditions in past years. The results will help you decide how hot, cold, wet, or windy it might be!

Date:

Astronomy

Jan. 17, 2014 Rise Set
Actual Time 6:42 AM PST 4:55 PM PST
Civil Twilight 6:15 AM PST 5:22 PM PST
Nautical Twilight 5:45 AM PST 5:53 PM PST
Astronomical Twilight 5:15 AM PST 6:22 PM PST
Moon 6:38 PM PST (1/17) 7:19 AM PST (1/17)
Length of Visible Light 11h 06m
Length of Day
10h 12m
Full, 98% of the Moon is Illuminated
Jan 17
Full
Jan 23
Last Quarter
Jan 30
New
Feb 6
First Quarter
Feb 14
Full

Hourly Weather History & Observations

Time (PST) Temp. Dew Point Humidity Pressure Visibility Wind Dir Wind Speed Gust Speed Precip Events Conditions
12:52 AM 55.0 °F 9.0 °F 16% 30.12 in 10.0 mi Calm Calm - N/A   Clear
1:52 AM 53.1 °F 10.0 °F 18% 30.12 in 10.0 mi SW 6.9 mph - N/A   Clear
2:52 AM 50.0 °F 10.0 °F 20% 30.13 in 10.0 mi Calm Calm - N/A   Clear
3:52 AM 48.0 °F 10.0 °F 22% 30.13 in 10.0 mi ENE 6.9 mph - N/A   Clear
4:52 AM 48.9 °F 10.9 °F 22% 30.14 in 10.0 mi Calm Calm - N/A   Clear
5:52 AM 48.0 °F 12.9 °F 24% 30.15 in 10.0 mi Calm Calm - N/A   Clear
6:52 AM 46.9 °F 12.9 °F 25% 30.17 in 10.0 mi Calm Calm - N/A   Clear
7:52 AM 53.1 °F 14.0 °F 21% 30.19 in 10.0 mi SW 5.8 mph - N/A   Clear
8:52 AM 60.1 °F 12.9 °F 16% 30.20 in 10.0 mi WSW 3.5 mph - N/A   Clear
9:52 AM 64.9 °F 15.1 °F 15% 30.19 in 10.0 mi East 3.5 mph - N/A   Clear
10:52 AM 70.0 °F 19.9 °F 15% 30.18 in 10.0 mi ENE 5.8 mph - N/A   Clear
11:52 AM 75.0 °F 10.9 °F 9% 30.12 in 10.0 mi North 10.4 mph - N/A   Clear
12:52 PM 77.0 °F 10.0 °F 8% 30.09 in 10.0 mi NNW 10.4 mph - N/A   Clear
1:52 PM 78.1 °F 10.0 °F 7% 30.08 in 10.0 mi North 9.2 mph - N/A   Clear
2:52 PM 77.0 °F 17.1 °F 10% 30.07 in 10.0 mi East 4.6 mph - N/A   Clear
3:52 PM 77.0 °F 17.1 °F 10% 30.06 in 10.0 mi East 4.6 mph - N/A   Clear
4:52 PM 73.0 °F 18.0 °F 12% 30.06 in 10.0 mi Calm Calm - N/A   Clear
5:52 PM 66.0 °F 19.0 °F 17% 30.06 in 10.0 mi WSW 3.5 mph - N/A   Clear
6:52 PM 61.0 °F 17.1 °F 18% 30.07 in 10.0 mi NNW 9.2 mph - N/A   Clear
7:52 PM 55.0 °F 12.9 °F 19% 30.08 in 10.0 mi NW 3.5 mph - N/A   Clear
8:52 PM 57.0 °F 14.0 °F 18% 30.08 in 10.0 mi Calm Calm - N/A   Clear
9:52 PM 54.0 °F 10.9 °F 18% 30.08 in 10.0 mi NW 8.1 mph - N/A   Clear
10:52 PM 57.9 °F 10.0 °F 15% 30.08 in 10.0 mi NW 4.6 mph - N/A   Clear
11:52 PM 55.0 °F 9.0 °F 16% 30.06 in 10.0 mi WNW 5.8 mph - N/A   Clear